{"data":{"norad_id":50484,"intl_designator":"2021-132R","name":"ONEWEB-0404","alt_names":[],"object_type":"PAYLOAD","status":"ACTIVE","operator":null,"country":"UK","launch_date":"2021-12-27","launch_site_code":"TYMSC","launch_vehicle":null,"mission":null,"orbit_class":"UNKNOWN","rcs_meters":null,"size_class":null,"mass_kg":null,"dimensions":null,"purposes":["comms"],"wikipedia_slug":null,"has_3d_model":false,"image_url":null,"decayed_at":null,"tle_current":{"epoch":"2026-09-20T00:22:45.031008Z","epoch_age_seconds":67679,"freshness":"FRESH","line1":"1 50484U 21132R   26263.01579897 -.00000088  00000+0 -28273-3 0  9997","line2":"2 50484  87.8973   2.2178 0001910 111.7592 248.3740 13.11418643228127","mean_motion":13.11418643,"eccentricity":0.000191,"inclination_deg":87.8973,"raan_deg":2.2178,"arg_perigee_deg":111.7592,"mean_anomaly_deg":248.374,"bstar":-0.00028273,"rev_number":22812,"period_min":109.80475286716,"perigee_km":1216.2253414467,"apogee_km":1219.1269420668,"semimajor_km":7595.8131417567,"source":"CELESTRAK","updated_at":"2026-09-20T09:00:44.702422Z"}}}